Location: Grust
(42.8833°N, 0.0333°W)
Time: 14:25:10
(UTC+00:00)

Cosmos 2058 - Pass Details

Date: 25 October 2020
Orbit: 562 x 584 km, 82.5° (Epoch: 24 November)

Event Time Altitude Azimuth Distance (km) Brightness Sun altitude
Rises 18:55:30 0° 352° (N) 2,764 6.5 -21.5°
Reaches altitude 10° 18:57:41 10° 354° (N) 1,862 5.6 -21.9°
Enters shadow 19:01:40 80° 47° (NE) 576 2.7 -22.6°
